This is the latest recevied weather packets stored in our database for station/object OK0BH-6. If no packets are shown the sender has not sent any weather packets the latest 10 day(s).
| Time | Temp. | Humidity | Pressure | Rain* | Wind** | Luminosity | Snow |
|---|---|---|---|---|---|---|---|
| 1787675050 | 18.89° C | 43% | 1015.3 hPa | - | - | - | - |
| 1787674475 | 19.44° C | 43% | 1015.3 hPa | - | - | - | - |
| 1787673900 | 19.44° C | 43% | 1015.2 hPa | - | - | - | - |
| 1787673325 | 19.44° C | 42% | 1015.3 hPa | - | - | - | - |
| 1787672751 | 20° C | 42% | 1015.1 hPa | - | - | - | - |
| 1787672176 | 20° C | 42% | 1015.2 hPa | - | - | - | - |
| 1787671601 | 20.56° C | 42% | 1015.3 hPa | - | - | - | - |
| 1787671026 | 20.56° C | 42% | 1015.4 hPa | - | - | - | - |
| 1787670451 | 20.56° C | 42% | 1015.2 hPa | - | - | - | - |
| 1787669876 | 20.56° C | 42% | 1015.2 hPa | - | - | - | - |
| 1787669301 | 20.56° C | 42% | 1015.1 hPa | - | - | - | - |
| 1787668726 | 20.56° C | 41% | 1015 hPa | - | - | - | - |
| 1787668152 | 21.11° C | 41% | 1014.9 hPa | - | - | - | - |
| 1787667577 | 21.11° C | 41% | 1014.8 hPa | - | - | - | - |
| 1787667002 | 21.11° C | 41% | 1014.7 hPa | - | - | - | - |
| 1787666427 | 21.67° C | 41% | 1014.7 hPa | - | - | - | - |
| 1787665852 | 21.67° C | 41% | 1014.7 hPa | - | - | - | - |
| 1787665277 | 21.67° C | 41% | 1014.6 hPa | - | - | - | - |
| 1787664702 | 22.22° C | 40% | 1014.5 hPa | - | - | - | - |
| 1787664128 | 23.33° C | 40% | 1014.6 hPa | - | - | - | - |
| 1787663553 | 23.89° C | 40% | 1014.5 hPa | - | - | - | - |
| 1787662978 | 23.89° C | 39% | 1014.4 hPa | - | - | - | - |
| 1787662403 | 23.89° C | 40% | 1014.2 hPa | - | - | - | - |
| 1787661828 | 23.89° C | 39% | 1014.1 hPa | - | - | - | - |
| 1787661253 | 23.89° C | 40% | 1014 hPa | - | - | - | - |
* Rain since midnight (hover to see other rain measurements)
** Current wind speed in m/s (hover to see current wind gust speed)